Date String (YYYY-MM-DD hh:mm:ss) UTC,Instrument flags,absolute air pressure of the measurement (hPa),sample flow rate (lpm),inlet stack bypass flow (lpm),air temperature of the measurement (°C),ambient temperature measured by the external sensor (°C),aerosol sample conditioner tube jacket temperature (°C),OPC LED temperature (°C),internal box temperature (°C),relative humidity of the measurement (%),span deviation,mass concentration of particles derived from Lorenz-Mie calculation of OPC scattering (μg/m³),mass concentration of particles derived from Lorenz-Mie calculation of OPC scattering (μg/m³),mass concentration of particles derived from Lorenz-Mie calculation of OPC scattering (μg/m³)
DateTimeUTC,F1_M11,P_M11,Q1_M11,Q2_M11,T1_M11,T2_M11,T3_M11,T4_M11,T5_M11,U1_M11,ZSPAN_M11,X0_M11,X2_M11,X1_M11
2023-09-28 16:00:00,SystemResetWarning,0828.6,5.00,000.00,028.5,025.4,000.0,036.9,030.1,15.1,0000.0,0017.95,0006.20,0005.14
2023-09-28 16:01:00,SystemResetWarning,0828.6,4.99,000.00,028.4,025.8,000.0,036.9,030.1,15.0,0000.0,0016.55,0006.15,0005.13
2023-09-28 16:02:00,SystemResetWarning,0828.6,5.00,000.00,028.4,026.1,000.0,036.9,030.1,15.0,0000.0,0015.81,0006.21,0005.15
2023-09-28 16:03:00,SystemResetWarning,0828.6,5.00,000.00,028.4,026.4,000.0,036.9,030.2,14.7,0000.0,0016.20,0006.22,0005.16
2023-09-28 16:04:00,SystemResetWarning,0828.7,5.00,000.00,028.5,026.7,000.0,036.9,030.2,14.6,0000.0,0016.13,0006.25,0005.15
2023-09-28 16:05:00,SystemResetWarning,0828.7,5.00,000.00,028.5,026.9,000.0,037.0,030.3,14.8,0000.0,0015.02,0006.22,0005.14
2023-09-28 16:06:00,SystemResetWarning,0828.6,5.00,000.00,028.5,027.1,000.0,037.0,030.4,14.7,0000.0,0014.64,0006.15,0005.13
2023-09-28 16:07:00,SystemResetWarning,0828.6,5.00,000.00,028.6,027.2,000.0,037.0,030.4,14.8,0000.0,0014.90,0006.18,0005.14
2023-09-28 16:08:00,SystemResetWarning,0828.6,4.98,000.00,028.6,025.9,000.0,036.9,030.3,14.8,0000.0,0014.54,0006.20,0005.15
2023-09-28 16:09:00,SystemResetWarning,0828.6,5.02,000.00,028.5,024.7,000.0,036.9,030.1,14.9,0000.0,0014.56,0006.25,0005.15
2023-09-28 16:10:00,SystemResetWarning,0828.6,5.00,000.00,028.4,024.8,000.0,036.8,030.1,14.9,0000.0,0014.14,0006.29,0005.16
2023-09-28 16:11:00,SystemResetWarning,0828.6,4.98,000.00,028.4,025.2,000.0,036.8,029.9,14.7,0000.0,0013.80,0006.26,0005.16
2023-09-28 16:12:00,SystemResetWarning,0828.6,5.01,000.00,028.3,025.5,000.0,036.9,029.9,14.4,0000.0,0013.80,0006.27,0005.17
2023-09-28 16:13:00,SystemResetWarning,0828.6,5.01,000.00,028.3,025.9,000.0,036.9,030.0,14.9,0000.0,0013.60,0006.19,0005.16
2023-09-28 16:14:00,SystemResetWarning,0828.6,4.99,000.00,028.3,026.3,000.0,036.9,030.1,14.6,0000.0,0013.66,0006.25,0005.15
2023-09-28 16:15:00,SystemResetWarning,0828.6,5.00,000.00,028.4,026.6,000.0,036.9,030.1,15.3,0000.0,0013.49,0006.24,0005.15
2023-09-28 16:16:00,SystemResetWarning,0828.6,5.00,000.00,028.4,026.8,000.0,036.9,030.2,14.8,0000.0,0013.90,0006.28,0005.16
2023-09-28 16:17:00,SystemResetWarning,0828.7,5.00,000.00,028.4,027.0,000.0,036.9,030.2,14.9,0000.0,0013.91,0006.33,0005.16
2023-09-28 16:18:00,SystemResetWarning,0828.7,5.00,000.00,028.5,027.2,000.0,036.9,030.3,15.4,0000.0,0012.84,0006.30,0005.16
2023-09-28 16:19:00,SystemResetWarning,0828.7,5.01,000.00,028.5,027.3,000.0,036.9,030.4,15.6,0000.0,0012.43,0006.28,0005.16
2023-09-28 16:20:00,SystemResetWarning,0828.7,4.99,000.00,028.5,026.4,000.0,036.9,030.3,15.7,0000.0,0012.97,0006.25,0005.16
2023-09-28 16:21:00,SystemResetWarning,0828.6,4.99,000.00,028.5,024.9,000.0,036.8,030.1,15.8,0000.0,0013.53,0006.22,0005.15
2023-09-28 16:22:00,SystemResetWarning,0828.6,5.03,000.00,028.4,024.8,000.0,036.8,030.1,15.6,0001.1,0013.71,0006.25,0005.16
2023-09-28 16:23:00,SystemResetWarning,0828.6,4.99,000.00,028.4,025.1,000.0,036.8,029.9,15.6,0001.5,0014.51,0006.28,0005.16
2023-09-28 16:24:00,SystemResetWarning,0828.6,4.99,000.00,028.3,025.5,000.0,036.8,029.9,15.5,0003.2,0014.57,0006.32,0005.17
2023-09-28 16:25:00,SystemResetWarning,0828.6,5.01,000.00,028.3,025.9,000.0,036.8,030.0,15.5,0002.9,0014.49,0006.31,0005.18
2023-09-28 16:26:00,SystemResetWarning,0828.6,5.02,000.00,028.3,026.2,000.0,036.8,030.1,16.5,0003.0,0014.77,0006.29,0005.17
2023-09-28 16:27:00,SystemResetWarning,0828.6,4.99,000.00,028.4,026.5,000.0,036.8,030.1,17.0,0002.8,0014.90,0006.28,0005.16
2023-09-28 16:28:00,SystemResetWarning,0828.6,5.00,000.00,028.4,026.8,000.0,036.8,030.2,16.6,0002.7,0014.69,0006.25,0005.16
2023-09-28 16:29:00,SystemResetWarning,0828.6,5.00,000.00,028.4,027.0,000.0,036.9,030.2,16.7,0002.7,0014.97,0006.24,0005.15
2023-09-28 16:30:00,SystemResetWarning,0828.6,5.00,000.00,028.5,027.0,000.0,036.9,030.3,16.7,0003.2,0015.46,0006.23,0005.15
2023-09-28 16:31:00,SystemResetWarning,0828.6,4.98,000.00,028.5,025.7,000.0,036.8,030.2,16.6,0003.4,0015.73,0006.21,0005.14
2023-09-28 16:32:00,SystemResetWarning,0828.6,5.00,000.00,028.4,024.6,000.0,036.7,030.0,16.9,0003.4,0014.87,0006.17,0005.13
2023-09-28 16:33:00,SystemResetWarning,0828.6,5.01,000.00,028.4,024.8,000.0,036.7,030.0,16.7,0004.0,0014.36,0006.15,0005.12
2023-09-28 16:34:00,SystemResetWarning,0828.6,5.00,000.00,028.3,025.1,000.0,036.7,029.9,16.5,0001.6,0013.93,0006.11,0005.11
2023-09-28 16:35:00,SystemResetWarning,0828.6,4.98,000.00,028.2,025.5,000.0,036.7,029.9,16.5,0002.9,0015.16,0006.07,0005.10
2023-09-28 16:36:00,SystemResetWarning,0828.6,5.00,000.00,028.2,025.9,000.0,036.8,029.9,16.0,0001.0,0015.15,0006.05,0005.08
2023-09-28 16:37:00,SystemResetWarning,0828.6,5.00,000.00,028.3,026.3,000.0,036.8,030.0,15.5,0004.0,0014.71,0005.98,0005.08
2023-09-28 16:38:00,SystemResetWarning,0828.5,5.01,000.00,028.3,026.6,000.0,036.8,030.1,14.8,0003.8,0014.39,0005.93,0005.08
2023-09-28 16:39:00,SystemResetWarning,0828.6,5.00,000.00,028.3,026.8,000.0,036.8,030.1,14.2,0003.8,0014.52,0005.91,0005.08
2023-09-28 16:40:00,SystemResetWarning,0828.6,5.00,000.00,028.4,027.1,000.0,036.8,030.2,14.0,0002.6,0014.21,0005.91,0005.08
2023-09-28 16:41:00,SystemResetWarning,0828.6,5.00,000.00,028.4,027.2,000.0,036.8,030.3,15.0,0000.0,0014.20,0005.89,0005.07
2023-09-28 16:42:00,SystemResetWarning,0828.6,5.00,000.00,028.5,027.0,000.0,036.8,030.3,15.2,0000.0,0013.86,0005.89,0005.08
2023-09-28 16:43:00,SystemResetWarning,0828.6,4.99,000.00,028.4,025.4,000.0,036.8,030.1,15.2,0003.0,0013.67,0005.89,0005.09
2023-09-28 16:44:00,SystemResetWarning,0828.5,5.02,000.00,028.4,024.7,000.0,036.7,030.0,15.3,0003.4,0014.10,0005.89,0005.09
2023-09-28 16:45:00,SystemResetWarning,0828.6,4.99,000.00,028.3,025.0,000.0,036.7,029.9,16.0,0003.3,0014.39,0005.87,0005.10
2023-09-28 16:46:00,SystemResetWarning,0828.6,5.00,000.00,028.3,025.3,000.0,036.7,029.9,16.8,0003.5,0012.98,0005.88,0005.13
2023-09-28 16:47:00,SystemResetWarning,0828.5,5.00,000.00,028.2,025.7,000.0,036.7,029.9,17.1,0003.8,0012.69,0005.87,0005.13
2023-09-28 16:48:00,SystemResetWarning,0828.5,5.01,000.00,028.2,026.1,000.0,036.7,030.0,17.1,0003.2,0012.82,0005.87,0005.13
2023-09-28 16:49:00,SystemResetWarning,0828.5,5.00,000.00,028.3,026.4,000.0,036.7,030.0,17.7,0003.4,0013.52,0005.90,0005.14
2023-09-28 16:50:00,SystemResetWarning,0828.6,4.99,000.00,028.3,026.7,000.0,036.8,030.1,18.3,0003.6,0013.15,0005.90,0005.15
2023-09-28 16:51:00,SystemResetWarning,0828.5,5.00,000.00,028.3,026.9,000.0,036.8,030.2,18.4,0003.0,0013.25,0005.90,0005.15
2023-09-28 16:52:00,SystemResetWarning,0828.5,5.00,000.00,028.4,027.1,000.0,036.8,030.2,18.3,0003.0,0012.42,0005.90,0005.15
2023-09-28 16:53:00,SystemResetWarning,0828.5,4.99,000.00,028.4,026.4,000.0,036.8,030.2,18.5,0002.6,0012.39,0005.89,0005.15
2023-09-28 16:54:00,SystemResetWarning,0828.4,5.00,000.00,028.3,024.9,000.0,036.7,030.0,18.7,0000.0,0012.59,0005.89,0005.15
2023-09-28 16:55:00,SystemResetWarning,0828.4,5.01,000.00,028.3,024.7,000.0,036.7,029.9,19.2,0000.0,0012.92,0005.90,0005.16
2023-09-28 16:56:00,SystemResetWarning,0828.4,5.02,000.00,028.2,025.0,000.0,036.7,029.8,19.4,0000.0,0013.11,0005.92,0005.14
2023-09-28 16:57:00,SystemResetWarning,0828.4,4.99,000.00,028.2,025.4,000.0,036.7,029.8,19.3,0000.0,0013.23,0005.93,0005.13
2023-09-28 16:58:00,SystemResetWarning,0828.4,4.99,000.00,028.2,025.8,000.0,036.7,029.9,18.8,0000.0,0013.33,0005.97,0005.14
2023-09-28 16:59:00,SystemResetWarning,0828.4,5.00,000.00,028.2,026.1,000.0,036.7,029.9,18.8,0000.0,0013.13,0005.98,0005.15
